Location: Phoenix
(33.4480°N, 112.0730°W)
Time: 02:12:27
(UTC-07:00)

Daily predictions for brighter satellites

Satellite Brightness Start Highest point End
(mag) Time Altitude Azimuth Time Altitude Azimuth Time Altitude Azimuth
Cosmos 2369 Rocket 3.6 00:40:13 34° N 00:40:13 34° N 00:43:21 10° NNE
SeaSat 1 4.4 00:56:19 26° NNE 00:56:19 26° NNE 00:59:05 10° N
CZ-2C R/B 4.3 01:04:25 10° N 01:07:08 29° NNW 01:07:08 29° NNW
NOSS 3-1 (A) 4.1 01:08:24 10° NNW 01:15:25 75° NNW 01:15:25 75° NNW
Cosmos 1943 Rocket 3.4 01:34:26 38° N 01:34:26 38° N 01:37:58 10° NNE
Lacrosse 5 3.9 01:37:14 22° NNW 01:37:14 22° NNW 01:40:30 10° NNE
CZ-3B DEB 4.4 01:04:30 10° NW 01:36:45 89° NE 01:42:31 40° SE
ATLAS 2AS CENTAUR R/B 3.7 01:30:04 10° NNW 01:37:51 50° NE 01:40:46 35° ESE
Cosmos 1725 Rocket 4.4 01:53:27 58° N 01:53:27 58° N 01:58:22 10° N
Tsikada Rocket 4.2 01:52:53 10° N 01:58:15 67° N 01:58:15 67° N
Resurs 1-4 Rocket 4.4 01:58:49 10° ENE 02:01:33 14° E 02:02:06 14° E
Cosmos 2098 Rocket 4.4 02:14:02 54° NW 02:14:02 54° NW 02:20:08 10° N
Milstar 3 Cent rocket 4.0 02:20:09 22° ESE 02:20:09 22° ESE 02:23:11 10° E
BREEZE-M DEB (TANK) 4.0 02:21:36 78° NW 02:21:36 78° NW 02:25:21 10° NE
ADEOS 4.2 02:16:46 10° NNE 02:21:12 49° ENE 02:21:12 49° ENE
Cosmos 44 Rocket 4.2 02:21:23 10° NNW 02:25:12 47° N 02:25:12 47° N
Cosmos 2219 3.5 02:23:07 10° NNW 02:27:36 58° NNW 02:27:36 58° NNW
ATLAS CENTAUR R/B 3.7 02:35:02 20° ESE 02:35:02 20° ESE 02:38:40 10° ENE
Cosmos 2227 Rocket 4.1 02:33:48 10° N 02:38:37 28° ENE 02:43:23 10° ESE
SL-08 R/B 4.3 02:45:37 38° NNW 02:45:37 38° NNW 02:48:34 10° NNW
CZ-2D R/B 3.1 02:40:05 10° NNE 02:45:12 40° E 02:46:14 36° SE
Cosmos 2369 3.9 02:45:53 59° ESE 02:46:09 60° ESE 02:51:43 10° NNE
Cosmos 2278 3.7 02:46:21 70° ESE 02:46:29 70° ESE 02:52:08 10° NNE
Cosmos 1812 Rocket 4.2 02:49:33 55° NNE 02:49:33 55° NNE 02:53:04 10° N
IRS-1C 4.2 02:43:23 10° N 02:48:16 64° NW 02:48:16 64° NW
Cosmos 405 Rocket 4.4 02:46:05 10° NNE 02:49:44 31° ENE 02:49:56 31° E
ARIANE 5 R/B 2.7 02:45:32 10° NNE 02:50:36 61° E 02:50:51 60° ESE
Cosmos 1464 Rocket 3.9 02:53:50 67° S 02:54:46 88° E 03:01:05 10° N
Spot 4 Rocket 3.9 02:51:46 10° N 02:56:49 78° NW 02:56:49 78° NW
Cosmos 2297 Rocket 4.0 02:56:02 10° N 03:00:56 29° ENE 03:05:47 10° ESE
ERS-1 4.4 02:58:06 10° N 03:03:07 74° WNW 03:03:07 74° WNW
IRS-1D 3.3 03:03:40 10° NNE 03:08:38 85° ESE 03:09:04 75° S
Okean 3 Rocket 4.1 03:09:08 10° N 03:13:28 54° E 03:14:31 42° SE
OAO 3 Rocket 2.9 03:18:54 82° SSW 03:18:56 82° SSW 03:23:37 10° ESE
SL-24 R/B 4.4 03:17:56 51° S 03:19:17 86° WSW 03:24:09 10° NNW
GEOS 3 Rocket 3.5 03:14:32 12° SE 03:19:21 88° ENE 03:24:34 10° NNW
Cosmos 1814 Rocket 4.0 03:19:25 56° S 03:20:33 82° ESE 03:25:55 10° NNE
OAO 1 Rocket 4.3 03:21:27 64° SW 03:21:40 65° SSW 03:26:56 10° ESE
Cosmos 44 3.2 03:18:20 10° NNW 03:23:27 88° WSW 03:25:30 35° SSE
Cosmos 1513 Rocket 4.5 03:26:38 47° SW 03:28:07 60° W 03:34:07 10° N
ATLAS 2AS CENTAUR R/B 3.6 03:21:43 10° NW 03:28:04 32° WSW 03:28:04 32° WSW
Cosmos 1707 2.6 03:25:24 10° N 03:29:14 82° WNW 03:29:14 82° WNW
CZ-4B R/B 4.4 03:30:10 10° NNE 03:35:19 38° E 03:39:46 13° SSE
ERS-2 4.5 03:34:31 10° NNW 03:35:42 14° NW 03:35:42 14° NW
SL-16 R/B 2.4 03:34:47 28° S 03:38:14 69° WSW 03:44:23 10° NNW
Cosmos 972 Rocket 4.4 03:36:52 10° NNW 03:41:30 40° W 03:41:40 40° WSW
Resurs 1-4 Rocket 2.3 03:36:32 10° N 03:41:40 55° WNW 03:43:11 41° SW
UNK 3.8 03:42:23 46° SSW 03:43:30 59° W 03:48:07 10° NNW
Meteor 2-12 Rocket 4.3 03:42:24 32° SSW 03:45:18 74° W 03:51:22 10° N
Meteor 2-5 Rocket 4.0 03:39:53 10° NNW 03:45:31 51° W 03:47:48 33° SSW
Cosmos 2150 Rocket 3.8 03:42:41 10° NNW 03:47:56 79° WSW 03:52:33 13° S
Cosmos 858 Rocket 4.4 03:44:22 10° NNW 03:49:36 84° WSW 03:54:51 10° SSE
Okean O Rocket 1.8 03:46:56 10° NNE 03:51:19 68° ESE 03:53:46 25° S
CZ-2D R/B 3.5 03:51:32 10° N 03:55:49 69° WNW 03:57:33 35° SSW
SWIFT 4.5 03:58:08 13° SSE 03:58:08 13° SSE 03:59:24 10° SSE
PSLV R/B 3.7 03:53:35 10° NNE 03:57:28 81° ESE 03:59:10 32° S
GPS 2-04 Rocket1 2.4 03:57:08 47° WSW 03:58:10 84° SSE 04:01:54 10° ENE
ASTRO E2 2.7 03:58:05 43° WSW 03:59:12 66° S 04:03:13 10° E
Cosmos 990 Rocket 4.4 03:54:33 10° N 03:59:47 66° ENE 04:05:00 10° SSE
BREEZE-M DEB (TANK) 3.0 04:00:27 10° WNW 04:08:10 - SSE 04:03:32 30° W
Cosmos 1656 4.0 04:03:24 28° SW 04:06:08 50° WNW 04:11:39 10° N
CZ-4B DEB 4.5 04:01:03 10° NNE 04:06:36 70° ESE 04:11:52 11° S
CZ-2C R/B 3.9 04:02:25 10° SSE 04:07:09 79° ENE 04:11:50 10° N
Cosmos 2082 3.8 04:03:02 10° NNW 04:08:27 49° WSW 04:13:48 10° S
Cosmos 1898 Rocket 3.8 04:05:10 10° NNW 04:10:15 46° WSW 04:14:56 12° S
Cosmos 1697 Rocket 2.8 04:07:33 25° SW 04:10:50 63° WNW 04:16:27 10° NNE
Cosmos 1758 3.2 04:10:31 21° S 04:13:12 84° W 04:17:14 10° N
Cosmos 1766 4.1 04:12:39 28° WSW 04:13:40 33° W 04:17:17 10° NNW
ATLAS CENTAUR R/B 2.5 04:11:24 25° WSW 04:13:49 42° WNW 04:18:37 10° NNE
Cosmos 1980 Rocket 2.2 04:12:34 17° SSW 04:16:57 86° ESE 04:22:37 10° NNE
MOZ.5/SAFIR/RUBIN 5/SL-8 3.8 04:12:44 10° SSE 04:17:29 88° ENE 04:22:12 10° NNW
Nadezhda 4 Rocket 4.3 04:12:10 10° NNW 04:18:02 47° W 04:23:38 11° SSW
Cosmos 1953 2.3 04:18:51 20° SSW 04:21:26 62° W 04:25:27 10° N
In-Cosmos 22 4.1 04:16:35 10° N 04:21:53 83° E 04:27:10 10° S
Cosmos 1076 Rocket 3.7 04:17:53 10° NNW 04:22:04 48° W 04:25:36 14° SSW
EP 1 4.4 04:21:31 38° WSW 04:22:09 52° WNW 04:24:36 10° NNE
SL-8 R/B 3.8 04:17:37 10° WNW 04:22:15 51° SW 04:26:51 10° SSE
Cosmos 2227 Rocket 2.8 04:17:35 10° NW 04:22:38 34° WSW 04:27:38 10° SSW
CZ-2D R/B 3.6 04:20:49 10° NNW 04:24:56 22° WNW 04:27:33 16° WSW
Cosmos 2322 Rocket 3.6 04:20:33 10° SSE 04:25:36 36° ESE 04:30:40 10° NE
UNKNOWN OBJECT B 4.4 04:23:46 10° NNW 04:26:32 19° WNW 04:27:41 16° W
Cosmos 841 Rocket 3.9 04:23:17 20° SW 04:26:43 47° WNW 04:31:49 10° N
Okean-O 3.4 04:22:54 10° NNE 04:27:15 53° E 04:31:34 10° S
ISS 0.1 04:26:53 10° N 04:28:01 11° NNE 04:29:09 10° NE
SEDSat Delta rocket 4.3 04:26:16 20° WSW 04:28:35 28° SSW 04:33:14 10° SE
ARIANE 5 R/B 4.5 04:26:46 10° NW 04:29:10 13° WNW 04:31:11 11° W
Cosmos 1937 Rocket 3.8 04:24:36 10° NNW 04:29:27 42° WSW 04:34:20 10° S
Cosmos 1766 Rocket 3.9 04:26:28 10° NNW 04:30:40 45° W 04:34:52 10° SSW
Cosmos 1408 Rocket 4.1 04:27:46 10° NNW 04:31:50 39° W 04:35:53 10° SSW
Thor Agena Rocket 3.4 04:26:54 10° SSE 04:31:58 87° WSW 04:37:01 10° NNW
Cosmos 332 Rocket 4.2 04:29:48 10° S 04:34:30 62° ESE 04:39:16 10° NNE
Cosmos 1544 3.0 04:32:55 10° S 04:36:35 80° W 04:40:16 10° N
Cosmos 1763 Rocket 4.4 04:33:50 16° WSW 04:37:17 33° WNW 04:41:58 10° N
Cosmos-2242 3.7 04:35:57 15° SW 04:39:05 36° W 04:43:05 10° NNW
Cosmos 1634 Rocket 4.4 04:38:03 11° SSW 04:43:46 43° W 04:49:41 10° N
Cosmos 2360 4.2 04:38:23 10° SSW 04:44:04 81° WNW 04:49:48 10° NNE
Cosmos 2297 Rocket 2.9 04:39:57 10° NW 04:44:52 31° WSW 04:49:45 10° SSW
Aureole 1 Rocket 4.1 04:40:02 10° S 04:44:58 70° ESE 04:51:37 10° NNE
Cosmos 1842 Rocket 3.6 04:42:44 10° SSW 04:47:10 67° W 04:51:38 10° N
Delta 7925 Rocket 4.2 04:44:18 13° WSW 04:48:08 29° SSW 04:52:09 10° SE
CSL-04 DEB 4.3 04:44:29 10° NNE 04:48:26 87° ESE 04:52:21 10° SSW
ARGOS Delta rocket 4.3 04:44:45 10° N 04:49:44 49° WNW 04:54:26 10° SSW
Cosmos 2026 Rocket 4.0 04:43:30 10° NNW 04:49:49 69° W 04:56:00 10° S
Aurora 2 Rocket 3.6 04:47:52 12° SW 04:49:59 21° S 04:52:59 10° ESE
NOSS 3-4 (A) 3.8 04:44:18 10° NW 04:51:21 66° WSW 04:58:46 10° SSE
NOSS 3-4 (C) 3.9 04:44:24 10° NW 04:51:29 67° WSW 04:58:57 10° SSE
Cosmos 1805 4.4 04:49:04 12° SW 04:52:05 27° WNW 04:55:26 10° NNW
PSLV R/B 3.5 04:49:08 10° N 04:53:21 75° WNW 04:57:34 10° SSW
Meteor PRIRODA 3.8 04:51:02 10° NNE 04:54:42 77° ESE 04:58:21 10° S
Milstar 3 Cent rocket 3.3 04:49:03 10° WSW 04:55:04 63° S 05:07:12 10° E
SL-16 R/B 2.7 04:49:38 10° S 04:55:12 63° ESE 05:00:49 10° NNE
BREEZE-M DEB (TANK) 2.8 04:54:26 12° WSW 04:55:17 14° SW 04:56:38 10° S
Cosmos 371 Rocket 3.6 04:51:59 10° S 04:56:47 69° ESE 05:01:34 10° NNE
Cosmos 1437 3.1 04:55:43 10° NNW 04:58:55 45° W 05:02:06 10° S
ADEOS II 2.1 04:54:44 10° NNE 05:00:01 89° WNW 05:05:16 10° SSW
CZ-4B R/B 4.1 04:58:38 10° NNW 05:01:51 24° WNW 05:04:56 10° SW
OAO 3 Rocket 4.0 04:58:05 10° W 05:02:09 29° SSW 05:06:10 10° SSE
Feng Yun 1-1 Rocket 4.3 05:03:25 10° N 05:09:00 65° WNW 05:14:26 10° SSW
